カタログに戻る

COSMOS 1250

運用中軍事LEO
NORAD 12320·PAYLOAD·🇷🇺 Russia

打ち上げ Mar 6, 1981 から Plesetsk Cosmodrome

Loading…

次のパス (今後24時間)

TLE

最新Source: Space-Track

元期: Sep 14, 2026, 08:57 UTC

1 12320U 81022A   26257.37298412 -.00000020  00000-0 -19263-4 0  9998
2 12320  74.0274 230.2698 0053155 280.8630 234.0388 12.58283483 91125

AllMySatでCOSMOS 1250をリアルタイム追跡

Download on the App Store